Terug naar catalogus

STARLINK-11128

ActiefCommunicatieVLEO
NORAD 60302·PAYLOAD·🇺🇸 United States

Gelanceerd Jul 28, 2024 vanaf Vandenberg Space Force Base

Loading…

Volgende Passages (komende 24 uur)

TLE

VersSource: CelesTrak SupGP

Epoch: Sep 14, 2026, 14:15 UTC

1 60302C 24133B   26257.59423611  .00077857  00000+0  64135-3 0  2579
2 60302  53.1561 295.1537 0001264  70.4565 214.2115 15.69669523    15

Volg STARLINK-11128 in realtime met AllMySat

Download on the App Store